• In Hungary
  • List of Countries
  • For 7 days
  • Water Temperature
  • Satellite Maps
  • Weather Map
  • News
  • Weather Widgets
  • user-avatar
    Login

    Hourly Weather Ojmjakon

    Today, 19 January, Friday

    Time Temperature Precipitation Wind Pressure Humidity
    00:00 -46°C° 0 mm 1 mps 642 mmHg 84%
    01:00 -46°C° 0 mm 1 mps 642 mmHg 84%
    02:00 -45°C° 0 mm 0 mps 642 mmHg 83%
    03:00 -45°C° 0 mm 0 mps 642 mmHg 82%
    04:00 -45°C° 0 mm 0 mps 642 mmHg 81%
    05:00 -45°C° 0 mm 0 mps 643 mmHg 80%
    06:00 -45°C° 0 mm 0 mps 643 mmHg 79%
    07:00 -45°C° 0 mm 0 mps 643 mmHg 78%
    08:00 -45°C° 0 mm 0 mps 643 mmHg 77%
    09:00 -47°C° 0 mm 1 mps 643 mmHg 72%
    10:00 -46°C° 0 mm 1 mps 643 mmHg 72%
    11:00 -45°C° 0 mm 1 mps 644 mmHg 71%
    12:00 -43°C° 0 mm 0 mps 644 mmHg 70%
    13:00 -43°C° 0 mm 0 mps 644 mmHg 69%
    14:00 -44°C° 0 mm 0 mps 643 mmHg 68%
    15:00 -45°C° 0 mm 0 mps 643 mmHg 66%
    16:00 -45°C° 0 mm 0 mps 643 mmHg 64%
    17:00 -46°C° 0 mm 1 mps 644 mmHg 62%
    18:00 -46°C° 0 mm 1 mps 644 mmHg 60%
    19:00 -46°C° 0 mm 1 mps 644 mmHg 58%
    20:00 -46°C° 0 mm 1 mps 644 mmHg 56%
    21:00 -45°C° 0 mm 0 mps 644 mmHg 54%
    22:00 -44°C° 0 mm 0 mps 644 mmHg 52%
    23:00 -44°C° 0 mm 0 mps 644 mmHg 50%

    Tomorrow, 20 January, Saturday

    Time Temperature Precipitation Wind Pressure Humidity
    00:00 -44°C° 0 mm 0 mps 644 mmHg 48%
    01:00 -44°C° 0 mm 0 mps 644 mmHg 47%
    02:00 -44°C° 0 mm 0 mps 644 mmHg 45%
    03:00 -44°C° 0 mm 0 mps 644 mmHg 44%
    04:00 -44°C° 0 mm 0 mps 644 mmHg 43%
    05:00 -43°C° 0 mm 0 mps 644 mmHg 42%
    06:00 -43°C° 0 mm 0 mps 644 mmHg 41%
    07:00 -43°C° 0 mm 0 mps 645 mmHg 40%
    08:00 -43°C° 0 mm 0 mps 645 mmHg 40%
    09:00 -43°C° 0 mm 0 mps 645 mmHg 39%
    10:00 -42°C° 0 mm 0 mps 645 mmHg 41%
    11:00 -41°C° 0 mm 0 mps 646 mmHg 43%
    12:00 -40°C° 0 mm 0 mps 646 mmHg 45%
    13:00 -40°C° 0 mm 0 mps 646 mmHg 45%
    14:00 -41°C° 0 mm 0 mps 646 mmHg 44%
    15:00 -42°C° 0 mm 0 mps 646 mmHg 43%
    16:00 -42°C° 0 mm 0 mps 646 mmHg 43%
    17:00 -42°C° 0 mm 0 mps 646 mmHg 43%
    18:00 -42°C° 0 mm 0 mps 646 mmHg 43%
    19:00 -42°C° 0 mm 0 mps 646 mmHg 44%
    20:00 -42°C° 0 mm 0 mps 646 mmHg 45%
    21:00 -42°C° 0 mm 0 mps 647 mmHg 46%
    22:00 -42°C° 0 mm 0 mps 646 mmHg 47%
    23:00 -43°C° 0 mm 1 mps 646 mmHg 48%

    Day after tomorrow, 21 January, Sunday

    Time Temperature Precipitation Wind Pressure Humidity
    00:00 -43°C° 0 mm 1 mps 646 mmHg 49%
    01:00 -43°C° 0 mm 1 mps 646 mmHg 50%
    02:00 -43°C° 0 mm 1 mps 646 mmHg 52%
    03:00 -43°C° 0 mm 1 mps 646 mmHg 53%
    04:00 -43°C° 0 mm 1 mps 646 mmHg 55%
    05:00 -43°C° 0 mm 1 mps 646 mmHg 56%
    06:00 -43°C° 0 mm 1 mps 646 mmHg 58%
    07:00 -43°C° 0 mm 1 mps 646 mmHg 59%
    08:00 -43°C° 0 mm 1 mps 646 mmHg 61%
    09:00 -43°C° 0 mm 1 mps 646 mmHg 63%
    10:00 -42°C° 0 mm 1 mps 646 mmHg 65%
    11:00 -41°C° 0 mm 1 mps 646 mmHg 67%
    12:00 -40°C° 0 mm 1 mps 646 mmHg 70%
    13:00 -40°C° 0 mm 1 mps 646 mmHg 72%
    14:00 -40°C° 0 mm 1 mps 645 mmHg 73%
    15:00 -40°C° 0 mm 1 mps 645 mmHg 75%
    16:00 -39°C° 0 mm 1 mps 645 mmHg 79%
    17:00 -38°C° 0 mm 1 mps 645 mmHg 82%
    18:00 -38°C° 0 mm 1 mps 645 mmHg 86%
    19:00 -37°C° 0.1 mm 1 mps 645 mmHg 89%
    20:00 -37°C° 0.1 mm 1 mps 644 mmHg 91%
    21:00 -36°C° 0.1 mm 1 mps 644 mmHg 94%
    22:00 -39°C° 0.1 mm 2 mps 644 mmHg 94%
    23:00 -38°C° 0.1 mm 2 mps 643 mmHg 94%

    22 January, Monday

    Time Temperature Precipitation Wind Pressure Humidity
    00:00 -38°C° 0.1 mm 2 mps 643 mmHg 95%
    01:00 -37°C° 0.1 mm 2 mps 643 mmHg 95%
    02:00 -37°C° 0.1 mm 2 mps 642 mmHg 95%
    03:00 -36°C° 0.1 mm 2 mps 642 mmHg 95%
    04:00 -36°C° 0.2 mm 2 mps 642 mmHg 95%
    05:00 -35°C° 0.2 mm 2 mps 641 mmHg 95%
    06:00 -35°C° 0.2 mm 2 mps 641 mmHg 95%
    07:00 -34°C° 0.2 mm 2 mps 641 mmHg 95%
    08:00 -32°C° 0.2 mm 2 mps 641 mmHg 95%
    09:00 -32°C° 0.2 mm 2 mps 641 mmHg 95%
    10:00 -31°C° 0.2 mm 2 mps 641 mmHg 95%
    11:00 -32°C° 0.2 mm 3 mps 640 mmHg 94%
    12:00 -31°C° 0.2 mm 3 mps 640 mmHg 94%
    13:00 -31°C° 0.2 mm 3 mps 640 mmHg 94%
    14:00 -31°C° 0.2 mm 3 mps 640 mmHg 94%
    15:00 -31°C° 0.2 mm 3 mps 640 mmHg 94%
    16:00 -30°C° 0.2 mm 3 mps 640 mmHg 93%
    17:00 -30°C° 0.2 mm 3 mps 640 mmHg 93%
    18:00 -30°C° 0.2 mm 3 mps 640 mmHg 93%
    19:00 -29°C° 0.2 mm 3 mps 640 mmHg 93%
    20:00 -29°C° 0.2 mm 3 mps 640 mmHg 92%
    21:00 -27°C° 0.2 mm 3 mps 641 mmHg 92%
    22:00 -26°C° 0.2 mm 3 mps 641 mmHg 92%
    23:00 -26°C° 0.2 mm 3 mps 642 mmHg 91%

    23 January, Tuesday

    Time Temperature Precipitation Wind Pressure Humidity
    00:00 -25°C° 0.2 mm 3 mps 642 mmHg 90%
    01:00 -25°C° 0.1 mm 3 mps 643 mmHg 91%
    02:00 -25°C° 0.1 mm 3 mps 643 mmHg 91%
    03:00 -25°C° 0.1 mm 3 mps 643 mmHg 91%
    04:00 -25°C° 0.1 mm 3 mps 644 mmHg 91%
    05:00 -26°C° 0.1 mm 3 mps 644 mmHg 92%
    06:00 -25°C° 0.1 mm 2 mps 644 mmHg 92%
    07:00 -25°C° 0.1 mm 2 mps 644 mmHg 92%
    08:00 -25°C° 0.1 mm 2 mps 645 mmHg 93%
    09:00 -26°C° 0.1 mm 2 mps 645 mmHg 93%
    10:00 -26°C° 0.1 mm 2 mps 646 mmHg 93%
    11:00 -22°C° 0.1 mm 1 mps 646 mmHg 94%
    12:00 -22°C° 0.1 mm 1 mps 646 mmHg 94%
    13:00 -23°C° 0.1 mm 1 mps 647 mmHg 94%
    14:00 -23°C° 0.1 mm 1 mps 647 mmHg 95%
    15:00 -24°C° 0.1 mm 1 mps 647 mmHg 95%
    16:00 -25°C° 0 mm 1 mps 648 mmHg 95%
    17:00 -25°C° 0 mm 1 mps 648 mmHg 95%
    18:00 -27°C° 0 mm 1 mps 648 mmHg 95%
    19:00 -28°C° 0 mm 1 mps 649 mmHg 95%
    20:00 -29°C° 0 mm 1 mps 649 mmHg 95%
    21:00 -29°C° 0 mm 1 mps 649 mmHg 95%
    22:00 -30°C° 0 mm 1 mps 649 mmHg 95%
    23:00 -30°C° 0 mm 1 mps 649 mmHg 95%

    24 January, Wednesday

    Time Temperature Precipitation Wind Pressure Humidity
    00:00 -30°C° 0 mm 1 mps 649 mmHg 94%
    01:00 -30°C° 0 mm 1 mps 649 mmHg 95%
    02:00 -30°C° 0 mm 1 mps 649 mmHg 95%
    03:00 -30°C° 0 mm 1 mps 649 mmHg 95%
    04:00 -30°C° 0.1 mm 1 mps 649 mmHg 95%
    05:00 -29°C° 0.1 mm 1 mps 649 mmHg 95%
    06:00 -29°C° 0.1 mm 1 mps 649 mmHg 95%
    07:00 -29°C° 0.1 mm 1 mps 649 mmHg 96%
    08:00 -29°C° 0.1 mm 1 mps 649 mmHg 96%
    09:00 -29°C° 0.1 mm 1 mps 649 mmHg 96%
    10:00 -28°C° 0.1 mm 1 mps 649 mmHg 95%
    11:00 -28°C° 0.1 mm 1 mps 649 mmHg 95%
    12:00 -27°C° 0.1 mm 1 mps 649 mmHg 95%
    13:00 -28°C° 0.1 mm 1 mps 649 mmHg 95%
    14:00 -28°C° 0.1 mm 1 mps 649 mmHg 96%
    15:00 -29°C° 0.1 mm 1 mps 649 mmHg 96%
    16:00 -29°C° 0 mm 1 mps 649 mmHg 96%
    17:00 -29°C° 0 mm 0 mps 649 mmHg 97%
    18:00 -29°C° 0 mm 0 mps 650 mmHg 97%
    19:00 -29°C° 0 mm 0 mps 650 mmHg 97%
    20:00 -31°C° 0 mm 1 mps 650 mmHg 97%
    21:00 -31°C° 0 mm 1 mps 650 mmHg 97%
    22:00 -32°C° 0 mm 1 mps 650 mmHg 98%
    23:00 -32°C° 0 mm 1 mps 650 mmHg 98%
    Show more